RH
46 47 60 46 45 47 53 64 53 49 64 54 39 52 56 46 62 62 41 76 75 76 70 70 74 77 74 77 75 76 74 72 74 75 74 72 71 74 76 76 76 75 74
47 59 68 73 64 66 60 68 68 66 60 47 59 54 40 62 78 80 72 52 78 93 77 72 74 75 74 73 73 77 78 77 79 78 78 78 78 76 74 76 76 74 75
53 72 88 58 55 62 58 60 67 70 53 44 45 46 67 64 78 63 84 72 85 86 90 77 80 79 77 73 73 75 79 80 80 81 83 81 81 81 80 79 78 79 79
80 82 80 85 66 87 56 77 57 51 57 68 63 57 84 82 78 70 67 78 71 67 69 86 81 81 77 72 73 76 79 81 82 82 83 84 83 83 84 84 82 83 82
62 72 65 69 86 82 86 72 86 83 78 59 50 54 64 88 80 61 74 75 78 75 67 70 90 83 75 70 72 78 79 81 82 83 84 84 84 84 85 86 86 86 86
84 87 76 77 73 84 70 75 77 88 76 85 79 78 83 78 70 81 74 70 60 68 62 57 85 74 79 73 75 79 81 81 81 82 83 83 84 86 87 87 88 88 87
93 76 68 72 77 68 69 73 77 75 78 93 98 96 94 87 86 74 65 77 71 60 68 85 97 90 64 79 79 81 80 79 78 80 83 83 84 86 87 89 89 88 88
73 70 75 72 81 67 69 72 80 88 83 90 70 91 91 90 89 88 67 86 69 70 52 74 87 76 70 54 66 79 79 80 78 79 80 81 84 86 88 89 90 89 89
66 69 73 71 73 87 86 83 83 80 82 84 81 65 82 88 94 69 86 82 79 78 74 67 67 75 95 80 90 93 75 82 78 77 77 79 83 85 88 90 90 90 91
74 72 70 73 78 85 86 86 87 87 87 72 81 71 85 94 97 96 94 93 92 89 86 89 56 70 51 48 68 73 76 80 78 78 77 79 80 84 86 88 89 90 91
77 74 66 70 72 71 76 76 76 78 87 82 90 91 75 87 93 97 97 95 95 93 88 89 86 74 59 68 67 86 83 79 77 77 77 78 78 78 82 85 87 89 90
83 70 65 68 66 70 77 69 73 77 87 90 90 86 69 73 92 93 94 96 93 88 92 94 95 99 74 64 61 82 83 81 82 85 86 82 77 77 78 78 82 85 87
53 71 71 73 66 70 72 77 77 80 83 87 81 67 80 93 86 90 81 91 97 90 89 93 92 98 85 54 64 76 82 84 85 87 85 82 82 81 81 80 79 78 78
51 65 74 76 78 73 74 72 72 76 78 81 78 77 69 93 89 94 77 84 98 98 92 88 94 93 94 75 80 83 85 91 89 87 85 83 86 87 87 89 88 86 84
52 69 72 73 73 76 77 77 72 74 70 75 74 75 86 87 88 92 95 95 95 93 85 88 95 92 95 96 93 88 84 86 84 84 83 87 82 77 87 90 91 91 90
75 67 63 64 66 71 74 70 61 63 67 60 61 82 84 90 89 91 80 91 94 94 92 81 95 93 92 86 79 89 50 81 79 75 79 77 77 73 78 79 82 87 92
67 67 64 64 66 69 72 71 68 73 74 77 74 71 82 81 72 76 79 78 70 64 84 84 82 85 84 77 68 59 58 48 51 80 77 74 78 78 79 79 80 82 87
67 70 65 63 68 69 75 79 72 73 69 72 73 76 72 66 75 78 67 78 80 78 86 95 91 94 88 90 95 88 68 61 54 68 78 81 81 81 81 80 82 85 88
63 57 61 65 74 74 79 70 72 68 71 70 70 68 69 68 69 61 62 62 76 74 82 92 92 87 84 78 77 78 81 72 58 69 78 79 77 77 80 83 84 86 87
60 61 64 65 62 59 60 64 63 60 59 56 58 59 59 59 61 62 53 57 55 55 75 88 93 95 93 69 63 78 69 72 74 50 55 59 65 64 79 78 83 87 85
67 68 68 65 59 48 40 60 56 52 52 50 48 47 49 55 63 62 42 58 62 48 38 35 39 53 66 73 68 56 58 54 51 53 41 42 37 31 37 76 63 82 85
75 72 66 61 54 33 66 64 52 42 46 48 47 46 54 61 58 62 59 55 65 64 64 51 44 43 60 50 41 40 40 43 44 40 42 39 33 34 34 31 60 65 83
66 64 58 55 56 52 62 59 58 36 40 45 46 44 39 36 50 54 56 62 61 68 66 61 64 60 60 59 63 67 65 58 54 46 51 46 41 40 33 23 56 75 81
65 62 56 52 55 56 68 58 60 50 43 44 45 45 48 50 63 53 52 49 48 47 47 42 49 50 52 53 60 59 69 70 57 47 60 59 45 43 39 35 52 66 72
58 56 53 53 53 64 69 74 72 48 40 46 46 48 49 51 66 64 53 54 55 50 47 69 70 67 67 69 64 53 52 47 44 38 38 47 40 41 40 40 37 64 72
55 40 49 51 59 57 74 75 73 38 39 34 42 45 72 56 68 66 58 53 55 50 50 51 47 50 66 60 75 66 53 52 48 44 41 46 42 44 44 39 38 38 41
Wind_Speed
6 5 3 6 6 5 4 4 5 6 4 11 11 6 11 8 1 4 7 12 2 10 17 18 18 16 16 15 16 16 15 15 14 14 12 11 11 9 9 8 8 8 9
4 5 3 4 5 4 4 3 3 4 7 9 7 6 9 5 6 5 4 5 7 17 16 19 19 20 19 19 16 16 17 16 15 14 13 12 11 11 11 10 9 9 9
7 4 4 8 8 3 6 5 4 5 8 9 11 9 5 10 4 7 6 5 5 12 24 22 21 20 19 21 19 16 18 16 15 14 14 13 13 13 12 11 11 11 10
6 4 4 6 9 7 9 4 7 7 6 5 5 7 4 5 5 8 9 6 7 8 14 14 22 22 21 21 20 17 18 18 17 16 15 15 15 14 13 13 12 11 11
9 6 7 8 7 7 6 6 5 8 6 8 9 7 5 6 8 9 8 10 9 9 7 14 17 24 23 22 20 18 19 18 18 17 17 16 16 15 15 14 14 13 11
6 5 8 8 7 6 8 7 8 7 6 6 8 8 7 8 7 8 9 8 12 10 11 14 12 13 23 21 20 19 19 18 18 20 17 18 17 17 16 16 14 13 12
9 12 10 6 8 9 9 8 6 8 7 4 2 4 3 9 8 8 9 8 11 14 10 4 5 11 14 23 22 20 20 20 19 17 17 16 18 18 18 16 15 15 14
11 11 9 8 7 6 9 8 7 6 6 5 4 1 3 2 2 5 8 7 11 7 12 10 9 22 2 11 11 19 22 21 20 17 16 16 17 19 19 18 16 16 15
13 10 8 7 7 6 6 7 6 7 7 3 5 4 2 2 2 2 4 6 7 8 9 8 11 6 2 8 15 17 22 20 18 18 18 18 18 19 19 19 17 16 16
10 7 9 7 6 6 7 6 5 6 5 8 2 5 4 1 3 3 1 1 4 5 6 6 9 8 12 6 6 7 24 18 17 17 17 16 17 17 18 18 18 17 17
6 5 3 6 6 4 6 6 5 7 5 6 4 4 4 4 6 4 3 1 2 2 5 4 6 8 4 5 7 3 10 16 13 12 11 9 7 7 17 17 17 18 18
3 3 4 6 7 6 7 5 5 5 5 4 4 4 6 5 3 4 5 2 2 2 3 4 2 4 9 4 4 12 13 12 11 10 8 7 6 8 10 13 16 17 18
4 3 4 6 6 5 5 6 6 5 5 4 4 5 4 4 5 5 6 3 1 2 2 3 3 2 11 7 6 9 9 8 8 8 6 4 5 7 10 13 14 14 15
2 3 4 3 5 3 4 4 4 5 4 3 4 5 5 4 4 4 6 3 1 4 0 3 3 4 7 7 6 9 5 7 9 8 6 5 5 7 9 11 11 12 13
1 4 4 6 7 6 6 4 4 5 5 5 4 3 4 4 4 2 3 3 4 2 3 2 1 4 4 4 3 5 9 11 8 8 7 6 6 7 6 8 11 12 13
2 2 4 5 5 6 5 6 5 6 6 6 6 8 6 5 5 5 3 2 1 3 2 1 1 1 1 2 8 7 6 12 12 12 12 10 8 7 7 9 10 11 12
6 4 5 7 9 9 6 5 6 7 6 7 7 8 8 10 7 7 8 8 6 5 2 3 2 1 1 3 1 6 7 9 8 17 15 13 12 10 10 10 11 10 11
7 4 5 5 7 6 7 8 8 8 9 8 10 8 8 7 7 8 7 8 7 8 6 5 3 3 1 4 4 6 7 8 8 2 10 10 11 13 12 11 11 10 10
4 5 4 5 5 5 5 5 5 6 7 8 7 8 7 7 8 6 6 6 5 3 4 3 4 4 3 5 6 5 5 6 7 9 10 14 15 16 11 11 12 12 11
3 5 5 3 4 3 3 4 3 3 3 5 6 8 9 9 9 9 5 6 6 3 2 2 2 2 2 4 4 3 7 5 7 10 10 11 8 13 14 15 15 14 14
4 3 3 2 3 0 7 7 4 4 4 4 4 6 7 7 9 9 7 8 8 8 8 7 4 5 5 4 4 4 6 7 9 6 9 7 9 10 11 17 17 19 16
4 3 3 1 4 7 7 7 7 3 3 2 2 1 8 10 7 6 4 2 4 5 6 7 8 9 9 8 8 8 8 8 9 7 8 8 8 9 9 9 1 10 16
2 1 1 1 4 5 3 6 8 1 1 2 1 3 8 7 3 7 10 10 8 12 11 6 8 8 10 9 10 10 10 10 10 9 10 11 9 10 9 11 11 10 12
1 1 1 0 3 5 3 1 7 7 3 2 2 3 3 5 8 7 9 10 10 10 9 8 10 10 10 9 10 12 13 12 12 12 11 13 10 11 10 10 15 12 13
2 2 1 1 2 6 3 3 5 9 6 4 5 4 5 5 9 5 6 10 12 12 11 11 9 11 12 17 15 9 10 11 12 11 9 11 9 10 9 8 8 11 14
2 4 3 3 3 3 4 1 4 8 9 7 6 6 12 4 8 4 6 10 12 12 12 13 13 14 19 18 21 15 11 10 11 11 9 8 9 8 10 9 9 11 8
Wind_Direction
235 271 254 257 274 289 302 275 223 252 253 271 257 211 207 223 306 302 297 168 131 231 205 215 220 219 221 220 225 227 224 226 221 223 222 229 230 231 228 238 230 236 244
258 268 333 303 264 252 253 303 278 259 229 241 257 269 237 151 155 242 256 279 181 258 245 222 221 221 219 219 227 233 228 224 227 225 221 226 231 231 233 233 241 244 241
269 316 309 289 291 295 251 289 281 297 271 241 252 246 181 232 188 233 239 234 196 213 260 242 229 220 214 216 227 234 228 224 231 231 227 217 225 231 234 234 234 237 237
237 260 250 257 259 265 260 214 268 254 241 264 267 239 134 159 205 251 230 236 240 225 232 232 251 236 211 215 223 230 222 219 224 228 225 224 222 226 231 232 236 236 239
231 253 267 255 271 265 279 260 281 266 264 277 276 279 282 197 210 238 229 238 236 240 222 234 222 245 217 208 214 219 218 218 222 219 223 225 227 226 228 228 228 231 233
229 243 259 272 266 239 257 244 246 268 268 264 278 275 269 252 234 223 236 241 248 246 249 249 208 218 216 201 205 214 212 217 221 222 215 226 226 225 228 227 227 227 228
199 228 247 268 251 244 244 244 246 256 260 230 310 279 293 253 238 224 232 241 248 235 237 195 281 242 199 190 197 205 210 209 227 226 221 222 224 225 227 227 225 225 226
231 231 232 240 254 264 252 256 252 248 240 237 240 276 292 309 220 246 242 236 254 249 254 263 188 244 264 195 183 205 201 212 220 227 228 224 224 225 225 226 224 222 224
235 230 242 245 250 242 257 271 262 263 275 240 191 256 288 271 343 259 252 253 259 263 261 231 242 257 99 198 139 229 220 218 216 223 225 228 224 222 222 223 224 222 224
245 221 239 242 250 256 272 265 270 263 268 267 211 234 230 229 292 301 62 296 332 301 271 264 251 265 243 210 227 210 194 200 206 222 227 227 224 220 218 220 222 222 223
287 241 238 252 258 253 245 251 256 271 264 274 295 254 234 258 257 257 272 295 309 321 313 269 242 261 220 160 216 199 159 155 180 198 203 198 205 234 225 223 221 223 225
248 75 304 293 297 292 275 282 285 274 278 261 255 240 274 271 295 244 249 274 298 295 292 330 71 328 246 205 182 150 163 156 174 190 205 215 223 237 235 232 230 227 231
239 156 286 274 287 291 296 291 297 308 304 274 271 258 275 261 254 244 246 239 216 270 210 253 285 314 266 192 151 144 151 167 184 196 193 253 259 253 253 250 244 240 244
190 23 358 333 354 327 316 339 348 353 333 341 286 267 272 250 280 301 278 236 217 230 344 356 352 12 37 23 116 144 134 185 179 182 201 239 253 256 252 247 247 251 252
65 46 23 29 44 30 24 25 36 15 7 354 320 341 323 326 322 306 314 274 261 245 186 160 65 342 53 105 63 273 177 169 185 193 200 216 235 250 245 251 254 254 252
96 87 59 70 67 54 31 349 33 49 12 15 15 24 15 2 8 347 337 31 334 274 220 128 131 129 343 308 180 228 185 164 197 197 199 206 219 241 250 251 249 254 257
100 84 61 48 41 44 39 35 34 44 25 46 35 39 47 35 23 18 13 5 27 10 64 105 92 146 261 302 253 242 184 223 195 197 198 202 208 219 234 245 248 250 255
98 96 66 68 73 51 31 31 31 26 33 31 40 43 40 52 46 40 36 35 34 24 12 7 358 5 274 18 315 323 313 312 323 154 221 220 225 228 227 244 250 248 252
65 93 94 74 59 79 73 58 39 40 40 39 35 41 36 37 46 46 55 54 50 37 49 40 342 353 344 358 344 307 272 289 297 286 249 241 239 252 253 230 238 240 241
91 63 51 71 83 76 74 53 42 41 17 67 49 48 50 46 37 7 46 5 40 337 142 141 194 222 247 305 323 311 309 279 262 254 243 256 246 248 235 239 235 231 236
90 92 95 36 290 111 39 359 29 23 50 65 57 105 82 89 84 54 16 14 0 343 338 314 268 203 208 217 226 261 261 265 281 287 285 270 269 263 241 225 239 228 231
136 182 203 97 14 56 27 10 354 92 63 39 82 126 157 166 133 116 106 355 305 332 322 322 309 314 316 306 311 298 292 288 292 305 301 298 283 266 287 296 213 223 213
102 6 1 41 107 104 66 358 340 308 349 23 33 344 309 92 38 18 358 318 296 223 235 278 286 285 306 307 313 299 283 284 273 281 298 283 284 284 279 272 267 185 184
138 209 231 233 165 108 148 332 329 292 274 260 290 324 337 349 62 19 339 328 330 318 303 286 292 294 286 305 300 285 288 293 280 265 244 263 264 260 260 257 253 226 202
207 211 182 227 253 125 189 254 303 307 248 249 241 240 256 262 128 99 333 327 316 307 294 246 258 279 262 249 249 278 273 267 270 269 256 231 262 274 270 271 265 232 214
210 252 209 229 23 176 165 231 275 298 315 306 298 268 186 58 117 150 315 314 305 304 321 315 299 276 247 246 232 230 257 269 277 278 273 316 299 282 271 249 243 247 228